Hourly Data Report for December 07, 2016

All times are specified in Local Standard Time (LST). Add 1 hour to adjust for Daylight Saving Time where and when it is observed.

GRAND ETANG
NOVA SCOTIA

46°33'00.000" N
61°03'00.000" W
12.80 m
8201969
WZQ

Related Data

No related data is available for this station

Download Data

Hourly Data (December 2016)
Hourly Data Report for December 7, 2016
Temp Definition
°C
Dew Point Temp Definition
°C
Rel Hum Definition
%
Wind Dir Definition
10's deg

Wind Spd Definition
km/h
Visibility Definition
km
Stn Press Definition
kPa
Hmdx Definition


Wind Chill Definition


Weather Definition


TIME
00:00 0.8 -2.8 77 33 27   101.04     LegendNANA
01:00 0.9 -2.5 78 32 27   101.08     LegendNANA
02:00 1.1 -2.1 79 32 30   101.12     LegendNANA
03:00 1.4 -2.3 76 31 29   101.14     LegendNANA
04:00 1.6 -2.3 75 32 32   101.12     LegendNANA
05:00 1.6 -2.9 72 33 28   101.10     LegendNANA
06:00 1.6 -2.5 74 33 26   101.12     LegendNANA
07:00 1.4 -2.6 74 33 27   101.15     LegendNANA
08:00 1.2 -2.4 77 34 28   101.19     LegendNANA
09:00 1.2 -2.7 75 33 28   101.24     LegendNANA
10:00 1.4 -2.4 76 34 26   101.21     LegendNANA
11:00 1.6 -2.7 73 35 16   101.20     LegendNANA
12:00 1.6 -2.2 76 33 17   101.17     LegendNANA
13:00 1.5 -2.2 77 34 13   101.18     LegendNANA
14:00 1.7 -1.8 77 34 17   101.18     LegendNANA
15:00 1.5 -1.9 78 29 17   101.21     LegendNANA
16:00 1.5 -1.9 78 32 17   101.21     LegendNANA
17:00 1.3 -2.3 77 30 7   101.23     LegendNANA
18:00 1.2 -2.3 77 28 4   101.22     LegendNANA
19:00 1.3 -2.3 77 30 5   101.20     LegendNANA
20:00 0.4 -2.5 81 13 6   101.16     LegendNANA
21:00 1.3 -1.3 83 24 10   101.16     LegendNANA
22:00 0.8 -2.0 81 17 6   101.18     LegendNANA
23:00 1.1 -1.6 82 16 9   101.18     LegendNANA

Notes on Data Quality.

Legend

  • E = Estimated
  • M = Missing
  • NA = Not Available
  • ‡ = Partner data that is not subject to review by the National Climate Archives
Date modified: